RH
46 24 54 72 97 93 73 60 60 66 39 32 37 48 70 70 40 18 17 15 13 15 14 24 48 50 72 91 95 94 96 94 94 94 97 97 86 87 92 90 81 92 96
58 74 53 97 96 96 92 94 75 71 38 35 47 70 81 44 21 18 16 14 12 15 19 31 74 94 75 95 98 96 95 97 96 97 97 96 97 96 80 79 88 96 94
96 91 74 86 80 94 98 96 58 41 45 66 83 84 52 24 21 17 15 14 17 63 58 74 97 99 90 100 94 94 95 97 97 97 97 96 97 94 90 96 97 96 93
97 98 97 99 99 99 97 85 45 66 84 89 97 64 26 19 21 19 14 25 48 67 52 73 97 95 91 92 98 97 97 95 97 96 97 97 96 97 97 98 98 95 94
65 63 94 95 88 89 80 63 62 86 95 97 83 52 22 20 21 19 19 22 71 89 97 97 97 96 97 99 97 96 93 97 98 96 97 96 97 97 97 98 97 94 94
68 92 93 90 75 73 61 78 80 84 96 83 73 45 24 21 21 24 26 71 98 98 97 98 96 97 96 96 97 99 91 98 97 97 96 96 97 97 97 98 97 96 94
92 87 98 58 47 47 67 94 94 99 94 90 74 44 29 23 22 28 41 93 98 97 96 96 97 98 98 96 93 99 98 98 97 98 97 98 98 98 98 98 97 96 96
53 36 44 51 54 52 63 79 85 94 98 97 94 73 40 26 24 30 39 83 96 98 96 97 97 97 97 97 98 98 98 97 97 98 98 98 97 97 98 97 97 96 94
50 54 47 40 36 46 66 78 78 79 95 85 89 92 80 32 26 26 41 57 57 97 98 98 98 98 98 97 97 97 98 97 97 98 96 96 97 98 97 98 99 92 65
36 37 41 47 46 45 45 51 62 60 80 94 100 99 94 45 32 27 31 55 33 35 89 98 97 98 98 98 97 98 98 98 97 98 97 98 98 98 92 64 50 48 45
18 22 36 48 59 60 58 75 98 80 96 99 93 80 98 60 48 43 34 32 41 42 30 39 59 88 98 98 99 98 97 98 98 98 98 97 98 96 59 45 43 39 40
11 16 21 24 47 54 53 55 77 88 98 89 83 91 92 77 77 60 56 44 43 39 47 44 32 28 62 56 87 94 98 99 98 98 98 97 95 67 41 37 87 86 74
33 46 66 60 47 48 98 100 100 97 99 95 99 83 99 95 94 95 78 63 60 72 53 43 49 53 47 36 32 32 36 34 40 39 38 37 36 39 45 54 58 64 78
81 100 99 100 98 91 75 75 83 99 100 100 99 99 100 100 95 88 100 98 76 86 90 99 91 52 48 54 66 71 72 81 86 80 70 56 81 56 49 71 84 100 100
91 91 88 95 98 100 100 98 100 96 98 99 99 99 99 100 100 93 100 85 98 98 96 94 98 98 98 90 72 61 74 81 85 95 100 100 100 100 99 94 97 100 100
88 91 92 94 98 99 100 99 100 99 99 99 99 100 100 100 100 100 100 98 97 93 99 100 99 100 97 100 100 99 98 97 98 100 98 97 98 98 98 99 96 99 99
47 50 53 61 73 79 83 91 97 99 100 100 100 100 100 98 99 99 100 100 100 100 100 100 100 100 100 100 100 100 100 100 100 100 100 100 99 100 100 100 100 100 100
13 13 13 13 14 17 22 29 35 44 55 73 99 100 100 100 100 100 100 100 100 100 99 100 100 99 98 98 98 99 100 100 100 100 100 100 100 98 100 100 100 100 100
10 10 9 9 10 10 11 12 12 13 14 17 20 24 49 91 100 100 100 100 100 100 100 100 100 100 100 100 100 100 100 100 100 100 100 100 100 100 100 100 100 99 98
12 12 12 12 11 10 9 8 7 7 8 9 12 14 16 17 18 22 40 77 100 100 100 100 100 100 100 100 100 100 100 100 100 100 100 100 100 100 100 100 100 100 100
18 17 16 16 15 14 13 13 12 11 11 10 8 7 8 9 12 14 17 18 19 20 31 56 85 97 100 100 100 100 100 100 100 100 100 100 100 100 99 98 95 90 69
21 20 20 19 18 18 18 17 17 17 17 16 16 14 13 11 9 8 8 10 13 16 16 18 20 22 24 28 36 40 49 50 43 40 39 35 32 29 25 22 23 23 23
27 26 24 23 24 24 22 21 19 18 17 16 15 14 14 14 13 11 10 10 10 9 11 14 17 18 19 20 21 21 22 23 24 24 25 24 24 24 23 23 22 21 20
33 31 30 29 27 25 24 24 23 22 20 18 17 16 16 16 15 14 14 13 13 14 13 12 12 14 16 18 19 21 22 23 23 23 23 23 23 22 22 21 20 18 16
39 38 34 31 30 28 28 27 24 20 16 11 9 8 8 8 8 9 9 10 11 13 14 15 14 13 13 13 14 16 16 16 16 16 16 15 14 14 13 11 10 10 9
42 37 34 34 34 32 28 22 16 11 9 9 10 11 10 10 9 8 8 8 8 8 9 9 10 11 11 11 11 10 10 10 10 10 9 9 9 9 8 8 8 7 7
Wind_Speed
41 40 38 39 38 35 35 36 36 36 35 39 36 36 39 36 37 36 38 41 42 40 33 33 35 34 36 37 41 39 42 42 38 35 36 40 40 40 39 40 40 37 37
38 36 32 36 35 35 36 34 32 34 36 37 36 38 39 33 34 36 38 39 40 37 36 37 35 35 37 39 37 41 45 42 43 37 38 39 41 40 40 41 39 39 40
38 35 32 35 29 33 32 30 33 33 36 36 39 38 33 34 34 36 35 37 38 35 37 41 39 35 41 40 39 45 45 47 42 42 39 38 42 40 38 43 46 42 42
35 28 31 29 30 30 31 32 34 33 34 36 41 32 34 35 35 36 35 37 39 41 44 41 42 43 45 39 43 43 43 41 46 43 42 38 37 38 39 41 42 43 42
25 30 31 30 29 30 31 32 31 33 37 40 32 34 35 35 34 33 35 41 41 32 33 36 37 39 46 46 42 42 41 42 45 46 42 35 35 38 42 43 42 44 45
22 29 29 31 31 31 31 32 31 36 37 30 33 35 35 34 33 33 32 39 27 28 28 33 39 40 38 45 38 45 43 45 45 43 38 34 39 37 41 45 45 45 47
29 23 26 33 34 34 33 32 28 32 31 34 34 37 35 35 32 31 28 34 24 31 33 30 35 40 39 40 39 41 45 46 43 41 40 40 41 41 44 48 48 47 47
31 32 35 37 36 36 36 34 34 32 28 30 36 38 36 35 32 32 24 28 18 26 30 28 31 36 35 39 42 44 47 47 43 41 42 45 48 47 43 43 46 45 42
29 32 34 38 37 38 38 37 38 36 34 32 30 39 38 36 33 33 24 25 24 17 20 25 28 31 34 37 39 36 40 45 41 44 40 40 40 42 44 41 42 44 45
28 31 35 37 38 37 37 37 38 38 39 34 36 40 37 39 37 35 30 26 25 23 23 20 26 29 33 40 39 39 43 45 41 45 45 46 48 48 41 44 47 48 49
27 31 35 36 38 38 38 40 46 40 40 41 39 35 41 41 39 38 35 31 31 29 28 26 28 28 26 37 39 43 46 49 45 45 42 47 41 41 42 47 49 49 50
26 29 33 37 40 40 41 40 41 49 44 43 44 37 39 40 41 42 41 40 37 35 35 35 33 32 32 33 37 35 32 38 42 44 44 44 43 47 49 50 46 52 54
25 25 28 33 36 41 41 42 49 54 44 43 45 48 43 45 46 47 45 44 42 42 40 41 42 41 41 41 41 41 40 41 44 47 48 50 51 53 53 55 57 61 63
24 24 25 26 29 37 43 48 51 54 51 58 63 55 50 49 51 53 50 54 50 47 44 45 46 47 48 48 47 47 48 48 50 51 53 54 56 61 62 64 66 66 68
22 25 27 26 26 28 29 28 38 47 53 58 53 55 54 59 55 58 59 56 53 54 52 52 52 51 49 51 54 56 56 58 59 59 60 64 65 67 70 72 73 74 76
16 16 19 23 26 27 27 27 29 31 30 34 41 48 52 53 53 54 60 64 67 63 62 60 59 61 60 61 61 61 60 61 62 66 66 65 72 71 73 77 79 83 83
21 22 25 24 24 25 24 24 24 27 28 31 35 37 39 41 48 58 64 67 66 66 69 68 68 67 67 66 69 71 72 72 72 74 77 80 77 78 83 84 88 89 88
27 28 29 31 32 33 34 36 36 35 34 32 32 34 35 38 43 44 46 47 50 55 60 64 67 70 72 71 71 74 78 78 81 81 80 79 79 79 82 85 86 86 85
30 33 36 38 40 41 43 43 45 45 45 44 44 42 41 41 40 40 39 44 47 51 54 56 58 60 62 65 67 69 70 70 71 71 72 73 73 73 75 77 81 80 80
38 42 43 43 42 43 44 47 50 52 52 52 52 52 52 52 51 51 51 50 49 49 52 51 49 49 50 51 54 57 60 62 64 65 65 65 67 69 69 69 71 74 73
48 49 48 49 51 53 53 54 55 55 56 58 58 59 60 59 59 59 59 59 59 59 60 60 59 58 57 58 58 60 61 63 65 67 67 67 69 72 72 73 74 74 74
55 55 55 58 58 57 57 58 59 60 60 62 63 64 64 63 63 65 66 67 67 67 67 67 66 66 66 66 67 68 68 68 70 70 70 71 72 73 74 75 76 77 79
59 60 62 63 63 64 66 67 67 67 68 68 68 69 70 70 69 69 69 70 71 73 74 75 74 74 74 73 73 74 74 75 75 75 76 76 77 78 79 80 81 82 84
66 67 68 70 71 71 71 71 70 69 68 68 69 68 69 70 71 71 71 72 72 73 74 76 77 77 78 78 79 79 80 79 80 80 80 80 81 81 82 84 83 83 83
70 73 74 72 70 69 68 68 68 68 67 65 62 61 61 62 63 65 67 69 71 71 70 71 72 73 74 75 76 77 77 77 77 77 77 78 78 78 78 78 78 78 78
74 73 70 69 69 69 68 66 63 61 59 56 54 51 49 51 53 55 58 61 64 66 68 68 68 68 69 69 70 70 70 71 71 71 71 72 72 71 71 69 67 65 62
Wind_Direction
218 219 223 227 231 234 236 242 246 251 253 249 252 252 254 256 257 261 264 264 261 264 260 251 247 249 244 232 225 230 234 237 240 248 251 248 246 245 245 241 248 250 253
219 221 222 226 229 232 236 243 247 247 243 250 253 253 260 254 258 263 264 262 262 263 262 249 247 234 240 229 229 232 235 238 240 251 257 252 247 242 247 249 249 254 257
213 216 223 235 241 239 238 243 247 247 247 248 249 253 251 255 261 265 266 267 262 253 247 251 245 242 235 233 236 242 236 240 239 249 254 250 244 241 243 247 249 251 257
215 215 220 221 228 232 236 239 241 245 245 247 249 246 250 258 263 267 268 273 264 261 250 248 245 243 236 232 244 236 237 236 242 253 252 249 246 237 246 249 253 257 259
229 231 225 228 230 234 236 239 243 244 247 245 243 246 251 258 266 271 277 276 268 241 241 239 240 236 226 232 243 234 240 238 240 252 248 249 242 247 251 250 251 256 259
246 221 237 232 230 230 234 238 240 242 243 249 246 248 253 261 268 276 282 275 244 229 231 230 229 231 240 236 227 234 237 241 244 244 247 247 247 246 254 252 254 258 254
233 217 237 235 233 232 232 233 242 251 255 255 255 253 257 261 266 275 280 283 244 229 233 240 233 232 231 233 236 243 239 240 235 246 244 250 251 258 259 255 256 252 253
237 237 233 235 237 237 237 239 241 246 263 272 271 256 255 259 264 270 273 280 275 239 238 232 235 228 236 231 233 234 237 235 236 237 243 249 251 256 255 254 251 253 258
240 240 240 241 242 241 242 244 250 253 262 262 271 257 253 256 260 264 268 268 280 261 238 237 234 232 231 236 234 233 232 232 232 237 251 247 243 244 245 249 251 263 258
248 246 244 245 247 248 247 251 249 254 257 262 270 271 253 254 256 258 260 258 264 263 265 238 241 234 231 233 233 238 247 234 242 240 245 248 245 247 255 255 255 258 261
256 254 251 248 250 253 254 253 249 254 259 262 261 263 247 252 252 256 257 254 255 261 257 252 257 261 243 229 239 249 241 244 244 239 235 252 251 256 255 254 257 260 264
268 264 259 254 253 252 254 255 266 270 256 262 266 263 262 249 255 254 256 256 255 253 255 259 257 256 248 261 253 253 242 238 241 246 252 256 260 258 258 259 255 260 264
276 274 268 259 255 253 252 250 253 260 251 259 253 260 256 257 253 253 255 257 257 259 256 253 254 255 255 257 256 257 255 256 258 259 258 258 257 259 260 259 260 260 263
271 273 274 270 265 259 257 258 263 260 245 256 251 250 250 257 259 252 258 262 258 256 260 262 258 254 253 255 257 259 261 262 263 264 265 265 266 267 264 268 268 266 265
275 271 273 271 270 266 264 259 253 263 257 255 248 245 251 257 256 256 254 257 258 258 259 261 263 265 259 256 255 254 253 257 260 260 262 264 266 265 267 267 267 268 270
306 297 284 278 276 275 273 267 263 262 262 261 258 252 246 238 233 236 246 254 257 261 262 258 261 264 264 264 264 264 261 260 261 261 264 266 265 267 266 266 266 267 270
310 309 308 306 300 297 297 296 292 288 282 268 261 260 260 259 256 253 253 251 253 254 257 259 259 259 259 261 261 264 265 265 267 269 268 268 271 270 267 269 267 266 265
302 300 297 294 293 291 290 289 288 285 282 280 275 275 271 266 260 259 258 258 259 259 260 259 260 260 261 261 262 262 262 262 266 268 268 267 268 268 266 264 263 263 264
306 305 303 300 298 295 293 291 287 284 282 280 276 274 272 266 262 265 264 264 262 262 259 258 257 257 257 258 259 260 262 263 264 264 264 264 263 264 266 267 267 268 269
310 310 307 302 299 296 294 291 287 285 282 280 277 275 274 272 271 271 269 268 256 260 256 254 255 258 260 261 262 263 263 263 262 262 263 264 265 267 266 266 267 267 269
310 309 305 303 302 300 297 294 290 286 283 278 275 273 272 270 269 268 268 268 267 267 269 270 270 267 264 262 263 260 259 258 258 260 261 263 264 265 268 272 274 277 278
309 306 304 304 302 299 296 293 290 287 282 279 276 272 269 267 266 265 264 265 264 264 264 264 264 265 264 265 266 266 267 267 268 268 268 269 271 272 273 274 275 276 278
308 306 305 303 301 298 296 294 291 288 285 281 277 274 272 271 268 265 263 263 262 262 262 262 262 262 263 264 264 265 265 266 267 268 269 270 271 273 274 275 277 278 279
308 306 304 303 301 298 295 292 289 286 284 282 280 277 273 270 268 266 265 264 263 262 262 261 261 261 261 262 263 264 265 266 267 269 270 271 273 274 275 276 278 279 280
308 307 305 303 300 297 295 292 290 288 287 284 281 278 275 272 269 267 265 265 265 264 264 264 264 264 264 264 264 265 266 267 269 270 271 272 273 274 276 277 278 280 282
308 307 304 302 300 298 296 294 292 289 286 284 281 278 275 273 270 267 265 264 264 264 264 265 264 264 264 265 266 266 267 268 269 271 272 273 274 276 278 280 283 284 285